EW5421 Weather Reports


Display with metric or nautical units.
time (UTC)temp
F
wind
direction
speed
MPH
gust
MPH
rain 1hr
in
rain 24hr
in
rain mn
in
humidity
%
barometer
mb
20260906213051 84 141 5.0 12.0 0.00 0.00 0.00 34 998.1
20260906211554 83 137 6.0 14.0 0.00 0.00 0.00 36 998.3
20260906210049 83 160 5.0 12.0 0.00 0.00 0.00 35 998.6
20260906204546 83 131 8.0 16.0 0.00 0.00 0.00 37 999.0
20260906203045 82 214 7.0 14.0 0.00 0.00 0.00 37 999.1
20260906201548 82 129 3.0 10.0 0.00 0.00 0.00 38 999.2
20260906200039 81 121 6.0 11.0 0.00 0.00 0.00 39 999.3
20260906194537 82 150 3.0 10.0 0.00 0.00 0.00 38 999.4
20260906193035 82 226 5.0 11.0 0.00 0.00 0.00 36 999.6
20260906191533 81 61 4.0 14.0 0.00 0.00 0.00 36 999.7
20260906190032 81 80 2.0 12.0 0.00 0.00 0.00 36 1000.0
20260906184528 81 233 4.0 10.0 0.00 0.00 0.00 37 1000.3
20260906183043 81 123 6.0 10.0 0.00 0.00 0.00 36 1000.7
20260906181524 80 217 5.0 11.0 0.00 0.00 0.00 37 1001.0
20260906180022 81 231 5.0 11.0 0.00 0.00 0.00 37 1001.3
20260906174518 80 134 1.0 11.0 0.00 0.00 0.00 38 1001.5
20260906173017 80 5 3.0 8.0 0.00 0.00 0.00 36 1001.6
20260906171520 79 346 2.0 11.0 0.00 0.00 0.00 39 1001.6
20260906170015 78 335 2.0 7.0 0.00 0.00 0.00 37 1001.8
20260906164513 77 129 1.0 7.0 0.00 0.00 0.00 38 1001.8
20260906163012 77 37 1.0 10.0 0.00 0.00 0.00 41 1001.9
20260906161510 77 65 2.0 8.0 0.00 0.00 0.00 37 1001.9
20260906160012 77 117 2.0 6.0 0.00 0.00 0.00 38 1001.9
20260906154504 75 67 1.0 7.0 0.00 0.00 0.00 39 1001.9
20260906153001 73 30 4.0 7.0 0.00 0.00 0.00 41 1001.8
20260906151558 72 42 2.0 6.0 0.00 0.00 0.00 45 1001.9
20260906150056 70 19 4.0 6.0 0.00 0.00 0.00 46 1002.0
20260906144557 69 58 3.0 6.0 0.00 0.00 0.00 50 1002.0
20260906143046 68 23 3.0 7.0 0.00 0.00 0.00 52 1002.0
20260906141542 66 345 2.0 7.0 0.00 0.00 0.00 56 1002.0
20260906140042 63 21 3.0 8.0 0.00 0.00 0.00 58 1002.1
20260906134541 62 10 3.0 6.0 0.00 0.00 0.00 60 1002.0
20260906133034 61 25 3.0 6.0 0.00 0.00 0.00 60 1002.0
20260906131535 60 10 3.0 7.0 0.00 0.00 0.00 60 1001.9
20260906130032 61 29 3.0 7.0 0.00 0.00 0.00 59 1001.9
20260906124530 60 6 3.0 7.0 0.00 0.00 0.00 59 1001.9
20260906123035 61 333 3.0 9.0 0.00 0.00 0.00 58 1001.9
20260906121539 61 355 2.0 6.0 0.00 0.00 0.00 57 1001.8
20260906120028 61 10 1.0 5.0 0.00 0.00 0.00 58 1001.9
20260906114531 61 20 1.0 6.0 0.00 0.00 0.00 58 1001.6
20260906113041 60 18 1.0 6.0 0.00 0.00 0.00 59 1001.6
20260906111525 60 8 2.0 3.0 0.00 0.00 0.00 60 1001.5
20260906110025 60 13 2.0 3.0 0.00 0.00 0.00 61 1001.4
20260906104529 60 13 2.0 4.0 0.00 0.00 0.00 61 1001.3
20260906103021 60 20 1.0 3.0 0.00 0.00 0.00 61 1001.4
20260906101521 60 33 2.0 4.0 0.00 0.00 0.00 62 1001.5
20260906100021 60 9 1.0 4.0 0.00 0.00 0.00 62 1001.6
20260906094519 60 21 2.0 3.0 0.00 0.00 0.00 63 1001.7
20260906093018 60 35 1.0 3.0 0.00 0.00 0.00 63 1001.6
20260906091529 60 45 1.0 2.0 0.00 0.00 0.00 66 1001.6
20260906090015 61 6 1.0 4.0 0.00 0.00 0.00 66 1001.5
20260906084513 62 13 0.0 4.0 0.00 0.00 0.00 67 1001.4
20260906083014 60 15 0.0 2.0 0.00 0.00 0.00 73 1001.5
20260906081513 59 32 0.0 1.0 0.00 0.00 0.00 80 1001.4
20260906080041 58 32 1.0 2.0 0.00 0.00 0.00 80 1001.5
20260906074510 59 32 0.0 1.0 0.00 0.00 0.00 78 1001.6
20260906073004 60 48 0.0 0.0 0.00 0.00 0.00 76 1001.6
20260906071506 60 47 0.0 1.0 0.00 0.00 0.00 76 1001.5
20260906070003 62 48 0.0 1.0 0.00 0.00 0.00 73 1001.6
20260906064503 63 61 0.0 1.0 0.00 0.00 0.00 72 1001.8
20260906063059 62 1 0.0 2.0 0.00 0.00 0.00 74 1001.7
20260906061607 62 76 0.0 2.0 0.00 0.00 0.00 73 1001.6
20260906060052 60 69 0.0 1.0 0.00 0.00 0.00 78 1001.4
20260906054551 55 73 0.0 2.0 0.00 0.00 0.00 87 1001.4
20260906053050 55 44 0.0 1.0 0.00 0.00 0.00 84 1001.4
20260906051600 57 44 0.0 2.0 0.00 0.00 0.00 82 1001.4
20260906050054 56 115 0.0 1.0 0.00 0.00 0.00 83 1001.4
20260906044551 59 115 0.0 0.0 0.00 0.00 0.00 78 1001.3
20260906043049 61 115 0.0 0.0 0.00 0.00 0.00 74 1001.4
20260906041548 63 124 0.0 1.0 0.00 0.00 0.00 71 1001.4
20260906040048 65 124 0.0 3.0 0.00 0.00 0.00 67 1001.4
20260906034546 66 30 0.0 2.0 0.00 0.00 0.00 68 1001.2
20260906033051 67 4 0.0 4.0 0.00 0.00 0.00 66 1001.1
20260906031558 67 10 1.0 12.0 0.00 0.00 0.00 66 1001.1
20260906030045 68 78 1.0 5.0 0.00 0.00 0.00 66 1001.0
20260906024645 68 123 0.0 7.0 0.00 0.00 0.00 65 1000.7
20260906023043 69 27 1.0 6.0 0.00 0.00 0.00 64 1000.8
20260906021543 68 68 2.0 8.0 0.00 0.00 0.00 62 1000.6
20260906020042 63 27 0.0 0.0 0.00 0.00 0.00 52 1000.1
20260906014541 66 27 0.0 1.0 0.00 0.00 0.00 49 999.9
20260906013040 69 27 0.0 2.0 0.00 0.00 0.00 44 999.7
20260906011542 73 30 0.0 2.0 0.00 0.00 0.00 38 999.8
20260906010039 76 338 0.0 2.0 0.00 0.00 0.00 34 999.8
20260906004538 77 314 0.0 3.0 0.00 0.00 0.00 32 1000.0
20260906003038 77 343 0.0 3.0 0.00 0.00 0.00 32 1000.2
20260906001538 78 28 0.0 1.0 0.00 0.00 0.00 34 999.9
20260906000139 78 28 0.0 4.0 0.00 0.00 0.00 31 999.9
20260905234535 79 49 1.0 3.0 0.00 0.00 0.00 29 999.7
20260905233042 80 35 3.0 4.0 0.00 0.00 0.00 28 999.7
20260905231534 80 26 0.0 4.0 0.00 0.00 0.00 31 999.6
20260905230038 80 282 1.0 4.0 0.00 0.00 0.00 28 999.7
20260905224545 79 19 1.0 5.0 0.00 0.00 0.00 31 999.7
20260905223030 79 354 1.0 2.0 0.00 0.00 0.00 33 1000.0
20260905221528 79 136 0.0 1.0 0.00 0.00 0.00 31 1000.0
20260905220027 78 70 0.0 2.0 0.00 0.00 0.00 32 1000.0
20260905214525 77 21 3.0 8.0 0.00 0.00 0.00 32 1000.0